STARLINK-32581, 62184

Orbit data source: Space-Track

STARLINK-32581, 62184 is a payload satellite owned by SpaceX/Seattle (US) in LEO that was launched on Sat, 30 Nov 2024 UTC via an FALCON 9 launch vehicle from the Air Force Western Test Range (AFWTR). Payload-class satellites include a variety of spacecraft equipped with specific instruments for various scientific and technological missions. These include communications satellites like Starlink; space stations such as the ISS; scientific satellites like the Hubble; Earth observation satellites from companies like Planet Labs, Umbra, and HawkEye 360; GPS; miniature CubeSats for education and research; and military/defense satellites.

Loading next visibility...
Identifier
62184, 2024-225X
Orbit
LEO
Country
Flag of USUS
Related business
Manufacturer
SpaceX/Seattle
Mission
Operational Commercial Communications
Bus & Motor
STARLINK V2M, Unknown motor
Mass
730 kg wet, ~700 kg dry
Launch date (UTC)
2024-11-30 (1 year ago)
Launch vehicle
FALCON 9
Launch site
Air Force Western Test Range (AFWTR)
Object type
Payload
Rocket body
Debris
Shape & HBR
Box + 2 Pan, 17.7 m
Radar Cross Section
33.884 m², Large (>1 m²)

Expand to show TLE details & history
Last TLE update: 13 hours ago

TLE from 13 hours ago
0 STARLINK-32581
1 62184U 24225X   26062.72479219  .00005983  00000-0  50862-3 0  9992
2 62184  70.0032 169.4030 0003033 269.6663  90.4148 14.98343291 69235
Epoch: 2026-03-03T17:23Z
TLE epoch observation values (Epoch: 2026-03-03T17:23:42.045Z)
Latitude
-0.00006°
Longitude
106.97805°
Altitude
574.455 km
Speed
7.574 km/s
True Right ascension
11h 17m 36s
True Declination
0° 00' 00"
Sunlit
Object was in full shadow at epoch
Visualization orbit readout
Latitude
Unknown
Longitude
Unknown
Altitude
Unknown
Speed
Unknown
Apparent Right ascension
Unknown
Apparent Declination
Unknown
Sunlit
N/A
Visualization observer readout
Local Sidereal Time
10:03:34
Azimuth
Unknown
Elevation
Unknown
Doppler factor
Unknown
Orbital elements
Apogee altitude
572.07 km
Perigee altitude
567.855 km
Semi-major axis
6,948.1 km
Eccentricity
0.0003
Inclination
70.0032°
RAAN
169.403°
Arg. of periapsis
269.6663°
True anomaly
90.44955°
Mean anomaly
90.4148°
Eccentric anomaly
90.43218°
Mean motion
3.74752 °/min
Orbital period
96.06 mins
BSTAR
0.00050862
Loading maneuver chart data...
Computing Atmospheric mass density...
Loading historical data...
Loading historical data...
Loading historical data...
Loading historical data...
Loading historical data...
Loading historical data...
Loading historical data...

Documentation

Showing up to 5 results
|